LEGION 3

Last updated on Mon Jul 07 2025 00:02:29 GMT+0000 (Coordinated Universal Time)

1 60452U 24146A 25187.53830530 .00003647 00000+0 19954-3 0 9994 2 60452 45.0021 83.6995 0021561 31.3436 328.8723 15.15972524 49575
UTC large
Height (km)
Speed (km/s)
/
Latitude / Longitude
Inclination (degrees)
Orbital Period (minutes)
Azimuth
Elevation
Range (km)
Doppler Factor

Next 0 passes for location: London (51.5072 / 0.1276)

Sorry there are no passes over London.